Voltar ao catálogo

FENGYUN 1C DEB

AtivoLEO
NORAD 30492·DEBRIS·🇨🇳 China

Lançado May 10, 1999 de Taiyuan Satellite Launch Center

Loading…

Próximas Passagens (próximas 24 horas)

TLE

AtualizadoSource: Space-Track

Época: Sep 14, 2026, 08:51 UTC

1 30492U 99025AHE 26257.36941715  .00009912  00000-0  19651-2 0  9996
2 30492 102.3240  49.6247 0087627  51.2015 309.6954 14.60165007  9025

Acompanhe FENGYUN 1C DEB em tempo real com AllMySat

Download on the App Store